Year,Month,Day,Hour,Minute,Value (Times are PST for temperature in C)
2006,11,30,00,00,2.40
2006,11,30,00,01,2.40
2006,11,30,00,02,2.50
2006,11,30,00,03,2.60
2006,11,30,00,04,2.60
2006,11,30,00,05,2.60
2006,11,30,00,06,2.60
2006,11,30,00,07,2.60
2006,11,30,00,08,2.70
2006,11,30,00,09,2.70
2006,11,30,00,10,2.70
2006,11,30,00,11,2.70
2006,11,30,00,12,2.70
2006,11,30,00,13,2.70
2006,11,30,00,14,2.80
2006,11,30,00,15,2.70
2006,11,30,00,16,2.70
2006,11,30,00,17,2.70
2006,11,30,00,18,2.70
2006,11,30,00,19,2.70
2006,11,30,00,20,2.80
2006,11,30,00,21,2.80
2006,11,30,00,22,2.80
2006,11,30,00,23,2.80
2006,11,30,00,24,2.80
2006,11,30,00,25,2.90
2006,11,30,00,26,2.90
2006,11,30,00,27,2.90
2006,11,30,00,28,2.90
2006,11,30,00,29,2.90
2006,11,30,00,30,2.90
2006,11,30,00,31,2.90
2006,11,30,00,32,3.00
2006,11,30,00,33,3.00
2006,11,30,00,34,3.10
2006,11,30,00,35,3.20
2006,11,30,00,36,3.30
2006,11,30,00,37,3.30
2006,11,30,00,38,3.40
2006,11,30,00,39,3.50
2006,11,30,00,40,3.60
2006,11,30,00,41,3.70
2006,11,30,00,42,3.80
2006,11,30,00,43,3.90
2006,11,30,00,44,4.00
2006,11,30,00,45,4.10
2006,11,30,00,46,4.20
2006,11,30,00,47,4.30
2006,11,30,00,48,4.40
2006,11,30,00,49,4.50
2006,11,30,00,50,4.50
2006,11,30,00,51,4.60
2006,11,30,00,52,4.60
2006,11,30,00,53,4.70
2006,11,30,00,54,4.70
2006,11,30,00,55,4.80
2006,11,30,00,56,4.80
2006,11,30,00,57,4.80
2006,11,30,00,58,4.90
2006,11,30,00,59,4.90
2006,11,30,01,00,5.00
2006,11,30,01,01,5.00
2006,11,30,01,02,5.10
2006,11,30,01,03,5.10
2006,11,30,01,04,5.10
2006,11,30,01,05,5.20
2006,11,30,01,06,5.20
2006,11,30,01,07,5.20
2006,11,30,01,08,5.30
2006,11,30,01,09,5.30
2006,11,30,01,10,5.30
2006,11,30,01,11,5.30
2006,11,30,01,12,5.30
2006,11,30,01,13,5.30
2006,11,30,01,14,5.30
2006,11,30,01,15,5.30
2006,11,30,01,16,5.30
2006,11,30,01,17,5.30
2006,11,30,01,18,5.30
2006,11,30,01,19,5.30
2006,11,30,01,20,5.30
2006,11,30,01,21,5.40
2006,11,30,01,22,5.40
2006,11,30,01,23,5.50
2006,11,30,01,24,5.50
2006,11,30,01,25,5.50
2006,11,30,01,26,5.60
2006,11,30,01,27,5.60
2006,11,30,01,28,5.60
2006,11,30,01,29,5.60
2006,11,30,01,30,5.60
2006,11,30,01,31,5.60
2006,11,30,01,32,5.60
2006,11,30,01,33,5.60
2006,11,30,01,34,5.70
2006,11,30,01,35,5.70
2006,11,30,01,36,5.70
2006,11,30,01,37,5.70
2006,11,30,01,38,5.70
2006,11,30,01,39,5.70
2006,11,30,01,40,5.70
2006,11,30,01,41,5.70
2006,11,30,01,42,5.70
2006,11,30,01,43,5.70
2006,11,30,01,44,5.70
2006,11,30,01,45,5.70
2006,11,30,01,46,5.70
2006,11,30,01,47,5.70
2006,11,30,01,48,5.80
2006,11,30,01,49,5.80
2006,11,30,01,50,5.80
2006,11,30,01,51,5.80
2006,11,30,01,52,5.80
2006,11,30,01,53,5.70
2006,11,30,01,54,5.70
2006,11,30,01,55,5.80
2006,11,30,01,56,5.80
2006,11,30,01,57,5.80
2006,11,30,01,58,5.80
2006,11,30,01,59,5.70
2006,11,30,02,00,5.70
2006,11,30,02,01,5.70
2006,11,30,02,02,5.70
2006,11,30,02,03,5.70
2006,11,30,02,04,5.70
2006,11,30,02,05,5.70
2006,11,30,02,06,5.70
2006,11,30,02,07,5.70
2006,11,30,02,08,5.60
2006,11,30,02,09,5.70
2006,11,30,02,10,5.60
2006,11,30,02,11,5.60
2006,11,30,02,12,5.60
2006,11,30,02,13,5.60
2006,11,30,02,14,5.50
2006,11,30,02,15,5.50
2006,11,30,02,16,5.50
2006,11,30,02,17,5.50
2006,11,30,02,18,5.40
2006,11,30,02,19,5.40
2006,11,30,02,20,5.40
2006,11,30,02,21,5.30
2006,11,30,02,22,5.30
2006,11,30,02,23,5.30
2006,11,30,02,24,5.20
2006,11,30,02,25,5.20
2006,11,30,02,26,5.20
2006,11,30,02,27,5.20
2006,11,30,02,28,5.20
2006,11,30,02,29,5.20
2006,11,30,02,30,5.20
2006,11,30,02,31,5.20
2006,11,30,02,32,5.10
2006,11,30,02,33,5.10
2006,11,30,02,34,5.10
2006,11,30,02,35,5.10
2006,11,30,02,36,5.10
2006,11,30,02,37,5.00
2006,11,30,02,38,5.00
2006,11,30,02,39,5.00
2006,11,30,02,40,4.90
2006,11,30,02,41,4.90
2006,11,30,02,42,4.90
2006,11,30,02,43,4.80
2006,11,30,02,44,4.80
2006,11,30,02,45,4.80
2006,11,30,02,46,4.70
2006,11,30,02,47,4.60
2006,11,30,02,48,4.50
2006,11,30,02,49,4.40
2006,11,30,02,50,4.40
2006,11,30,02,51,4.40
2006,11,30,02,52,4.30
2006,11,30,02,53,4.30
2006,11,30,02,54,4.30
2006,11,30,02,55,4.20
2006,11,30,02,56,4.20
2006,11,30,02,57,4.20
2006,11,30,02,58,4.20
2006,11,30,02,59,4.10
2006,11,30,03,00,4.10
2006,11,30,03,01,4.10
2006,11,30,03,02,4.10
2006,11,30,03,03,4.10
2006,11,30,03,04,4.10
2006,11,30,03,05,4.10
2006,11,30,03,06,4.10
2006,11,30,03,07,4.00
2006,11,30,03,08,4.00
2006,11,30,03,09,3.90
2006,11,30,03,10,3.90
2006,11,30,03,11,3.90
2006,11,30,03,12,3.80
2006,11,30,03,13,3.80
2006,11,30,03,14,3.80
2006,11,30,03,15,3.80
2006,11,30,03,16,3.90
2006,11,30,03,17,3.90
2006,11,30,03,18,3.90
2006,11,30,03,19,3.90
2006,11,30,03,20,4.00
2006,11,30,03,21,3.90
2006,11,30,03,22,3.90
2006,11,30,03,23,4.00
2006,11,30,03,24,4.10
2006,11,30,03,25,4.10
2006,11,30,03,26,4.20
2006,11,30,03,27,4.20
2006,11,30,03,28,4.20
2006,11,30,03,29,4.20
2006,11,30,03,30,4.20
2006,11,30,03,31,4.20
2006,11,30,03,32,4.20
2006,11,30,03,33,4.20
2006,11,30,03,34,4.20
2006,11,30,03,35,4.30
2006,11,30,03,36,4.30
2006,11,30,03,37,4.30
2006,11,30,03,38,4.20
2006,11,30,03,39,4.20
2006,11,30,03,40,4.20
2006,11,30,03,41,4.20
2006,11,30,03,42,4.20
2006,11,30,03,43,4.20
2006,11,30,03,44,4.20
2006,11,30,03,45,4.10
2006,11,30,03,46,4.10
2006,11,30,03,47,4.10
2006,11,30,03,48,4.10
2006,11,30,03,49,4.20
2006,11,30,03,50,4.30
2006,11,30,03,51,4.40
2006,11,30,03,52,4.40
2006,11,30,03,53,4.40
2006,11,30,03,54,4.50
2006,11,30,03,55,4.50
2006,11,30,03,56,4.50
2006,11,30,03,57,4.50
2006,11,30,03,58,4.40
2006,11,30,03,59,4.30
2006,11,30,04,00,4.30
2006,11,30,04,01,4.30
2006,11,30,04,02,4.20
2006,11,30,04,03,4.20
2006,11,30,04,04,4.10
2006,11,30,04,05,4.10
2006,11,30,04,06,4.00
2006,11,30,04,07,3.90
2006,11,30,04,08,3.90
2006,11,30,04,09,3.80
2006,11,30,04,10,3.80
2006,11,30,04,11,3.70
2006,11,30,04,12,3.60
2006,11,30,04,13,3.60
2006,11,30,04,14,3.60
2006,11,30,04,15,3.50
2006,11,30,04,16,3.50
2006,11,30,04,17,3.50
2006,11,30,04,18,3.40
2006,11,30,04,19,3.30
2006,11,30,04,20,3.10
2006,11,30,04,21,3.00
2006,11,30,04,22,2.90
2006,11,30,04,23,2.80
2006,11,30,04,24,2.70
2006,11,30,04,25,2.70
2006,11,30,04,26,2.70
2006,11,30,04,27,2.70
2006,11,30,04,28,2.80
2006,11,30,04,29,2.80
2006,11,30,04,30,2.80
2006,11,30,04,31,2.80
2006,11,30,04,32,2.80
2006,11,30,04,33,2.80
2006,11,30,04,34,2.80
2006,11,30,04,35,2.80
2006,11,30,04,36,2.80
2006,11,30,04,37,2.70
2006,11,30,04,38,2.70
2006,11,30,04,39,2.70
2006,11,30,04,40,2.70
2006,11,30,04,41,2.70
2006,11,30,04,42,2.70
2006,11,30,04,43,2.60
2006,11,30,04,44,2.60
2006,11,30,04,45,2.60
2006,11,30,04,46,2.60
2006,11,30,04,47,2.60
2006,11,30,04,48,2.60
2006,11,30,04,49,2.50
2006,11,30,04,50,2.50
2006,11,30,04,51,2.50
2006,11,30,04,52,2.50
2006,11,30,04,53,2.40
2006,11,30,04,54,2.40
2006,11,30,04,55,2.40
2006,11,30,04,56,2.40
2006,11,30,04,57,2.40
2006,11,30,04,58,2.50
2006,11,30,04,59,2.50
2006,11,30,05,00,2.50
2006,11,30,05,01,2.50
2006,11,30,05,02,2.50
2006,11,30,05,03,2.50
2006,11,30,05,04,2.60
2006,11,30,05,05,2.60
2006,11,30,05,06,2.60
2006,11,30,05,07,2.60
2006,11,30,05,08,2.60
2006,11,30,05,09,2.70
2006,11,30,05,10,2.70
2006,11,30,05,11,2.70
2006,11,30,05,12,2.70
2006,11,30,05,13,2.70
2006,11,30,05,14,2.60
2006,11,30,05,15,2.60
2006,11,30,05,16,2.70
2006,11,30,05,17,2.70
2006,11,30,05,18,2.70
2006,11,30,05,19,2.70
2006,11,30,05,20,2.60
2006,11,30,05,21,2.60
2006,11,30,05,22,2.60
2006,11,30,05,23,2.50
2006,11,30,05,24,2.50
2006,11,30,05,25,2.50
2006,11,30,05,26,2.40
2006,11,30,05,27,2.40
2006,11,30,05,28,2.40
2006,11,30,05,29,2.40
2006,11,30,05,30,2.40
2006,11,30,05,31,2.30
2006,11,30,05,32,2.30
2006,11,30,05,33,2.30
2006,11,30,05,34,2.20
2006,11,30,05,35,2.10
2006,11,30,05,36,2.10
2006,11,30,05,37,2.00
2006,11,30,05,38,1.90
2006,11,30,05,39,1.80
2006,11,30,05,40,1.80
2006,11,30,05,41,1.70
2006,11,30,05,42,1.70
2006,11,30,05,43,1.70
2006,11,30,05,44,1.70
2006,11,30,05,45,1.70
2006,11,30,05,46,1.70
2006,11,30,05,47,1.60
2006,11,30,05,48,1.60
2006,11,30,05,49,1.50
2006,11,30,05,50,1.50
2006,11,30,05,51,1.50
2006,11,30,05,52,1.50
2006,11,30,05,53,1.50
2006,11,30,05,54,1.60
2006,11,30,05,55,1.60
2006,11,30,05,56,1.50
2006,11,30,05,57,1.40
2006,11,30,05,58,1.30
2006,11,30,05,59,1.30
2006,11,30,06,00,1.20
2006,11,30,06,01,1.10
2006,11,30,06,02,1.00
2006,11,30,06,03,1.00
2006,11,30,06,04,1.00
2006,11,30,06,05,0.90
2006,11,30,06,06,0.90
2006,11,30,06,07,0.90
2006,11,30,06,08,0.90
2006,11,30,06,09,1.00
2006,11,30,06,10,1.00
2006,11,30,06,11,1.00
2006,11,30,06,12,1.00
2006,11,30,06,13,1.00
2006,11,30,06,14,0.90
2006,11,30,06,15,0.90
2006,11,30,06,16,0.90
2006,11,30,06,17,0.90
2006,11,30,06,18,0.80
2006,11,30,06,19,0.80
2006,11,30,06,20,0.80
2006,11,30,06,21,0.80
2006,11,30,06,22,0.70
2006,11,30,06,23,0.80
2006,11,30,06,24,0.70
2006,11,30,06,25,0.70
2006,11,30,06,26,0.70
2006,11,30,06,27,0.70
2006,11,30,06,28,0.70
2006,11,30,06,29,0.70
2006,11,30,06,30,0.60
2006,11,30,06,31,0.60
2006,11,30,06,32,0.60
2006,11,30,06,33,0.60
2006,11,30,06,34,0.60
2006,11,30,06,35,0.60
2006,11,30,06,36,0.60
2006,11,30,06,37,0.60
2006,11,30,06,38,0.50
2006,11,30,06,39,0.40
2006,11,30,06,40,0.40
2006,11,30,06,41,0.30
2006,11,30,06,42,0.40
2006,11,30,06,43,0.40
2006,11,30,06,44,0.40
2006,11,30,06,45,0.30
2006,11,30,06,46,0.30
2006,11,30,06,47,0.20
2006,11,30,06,48,0.20
2006,11,30,06,49,0.20
2006,11,30,06,50,0.20
2006,11,30,06,51,0.20
2006,11,30,06,52,0.20
2006,11,30,06,53,0.20
2006,11,30,06,54,0.20
2006,11,30,06,55,0.20
2006,11,30,06,56,0.20
2006,11,30,06,57,0.20
2006,11,30,06,58,0.20
2006,11,30,06,59,0.10
2006,11,30,07,00,0.10
2006,11,30,07,01,0.10
2006,11,30,07,02,0.20
2006,11,30,07,03,0.20
2006,11,30,07,04,0.20
2006,11,30,07,05,0.20
2006,11,30,07,06,0.20
2006,11,30,07,07,0.20
2006,11,30,07,08,0.20
2006,11,30,07,09,0.20
2006,11,30,07,10,0.10
2006,11,30,07,11,0.10
2006,11,30,07,12,0.10
2006,11,30,07,13,0.20
2006,11,30,07,14,0.20
2006,11,30,07,15,0.20
2006,11,30,07,16,0.10
2006,11,30,07,17,0.10
2006,11,30,07,18,0.00
2006,11,30,07,19,0.00
2006,11,30,07,20,0.00
2006,11,30,07,21,0.10
2006,11,30,07,22,0.10
2006,11,30,07,23,0.20
2006,11,30,07,24,0.20
2006,11,30,07,25,0.20
2006,11,30,07,26,0.20
2006,11,30,07,27,0.20
2006,11,30,07,28,0.10
2006,11,30,07,29,0.10
2006,11,30,07,30,0.10
2006,11,30,07,31,0.00
2006,11,30,07,32,-0.10
2006,11,30,07,33,-0.10
2006,11,30,07,34,-0.10
2006,11,30,07,35,-0.10
2006,11,30,07,36,0.00
2006,11,30,07,37,0.00
2006,11,30,07,38,0.00
2006,11,30,07,39,0.00
2006,11,30,07,40,0.00
2006,11,30,07,41,0.10
2006,11,30,07,42,0.10
2006,11,30,07,43,0.10
2006,11,30,07,44,0.10
2006,11,30,07,45,0.10
2006,11,30,07,46,0.10
2006,11,30,07,47,0.10
2006,11,30,07,48,0.10
2006,11,30,07,49,0.10
2006,11,30,07,50,0.00
2006,11,30,07,51,0.10
2006,11,30,07,52,0.10
2006,11,30,07,53,0.20
2006,11,30,07,54,0.20
2006,11,30,07,55,0.20
2006,11,30,07,56,0.20
2006,11,30,07,57,0.20
2006,11,30,07,58,0.20
2006,11,30,07,59,0.20
2006,11,30,08,00,0.20
2006,11,30,08,01,0.20
2006,11,30,08,02,0.20
2006,11,30,08,03,0.30
2006,11,30,08,04,0.40
2006,11,30,08,05,0.60
2006,11,30,08,06,0.70
2006,11,30,08,07,0.80
2006,11,30,08,08,0.80
2006,11,30,08,09,0.80
2006,11,30,08,10,0.80
2006,11,30,08,11,0.80
2006,11,30,08,12,0.70
2006,11,30,08,13,0.70
2006,11,30,08,14,0.60
2006,11,30,08,15,0.60
2006,11,30,08,16,0.60
2006,11,30,08,17,0.60
2006,11,30,08,18,0.60
2006,11,30,08,19,0.60
2006,11,30,08,20,0.60
2006,11,30,08,21,0.60
2006,11,30,08,22,0.60
2006,11,30,08,23,0.60
2006,11,30,08,24,0.50
2006,11,30,08,25,0.50
2006,11,30,08,26,0.40
2006,11,30,08,27,0.40
2006,11,30,08,28,0.30
2006,11,30,08,29,0.30
2006,11,30,08,30,0.30
2006,11,30,08,31,0.30
2006,11,30,08,32,0.30
2006,11,30,08,33,0.30
2006,11,30,08,34,0.30
2006,11,30,08,35,0.30
2006,11,30,08,36,0.30
2006,11,30,08,37,0.30
2006,11,30,08,38,0.30
2006,11,30,08,39,0.30
2006,11,30,08,40,0.30
2006,11,30,08,41,0.30
2006,11,30,08,42,0.30
2006,11,30,08,43,0.30
2006,11,30,08,44,0.30
2006,11,30,08,45,0.30
2006,11,30,08,46,0.30
2006,11,30,08,47,0.30
2006,11,30,08,48,0.30
2006,11,30,08,49,0.30
2006,11,30,08,50,0.30
2006,11,30,08,51,0.30
2006,11,30,08,52,0.30
2006,11,30,08,53,0.30
2006,11,30,08,54,0.40
2006,11,30,08,55,0.40
2006,11,30,08,56,0.40
2006,11,30,08,57,0.40
2006,11,30,08,58,0.40
2006,11,30,08,59,0.40
2006,11,30,09,00,0.40
2006,11,30,09,01,0.40
2006,11,30,09,02,0.40
2006,11,30,09,03,0.40
2006,11,30,09,04,0.40
2006,11,30,09,05,0.40
2006,11,30,09,06,0.40
2006,11,30,09,07,0.30
2006,11,30,09,08,0.30
2006,11,30,09,09,0.30
2006,11,30,09,10,0.30
2006,11,30,09,11,0.30
2006,11,30,09,12,0.30
2006,11,30,09,13,0.30
2006,11,30,09,14,0.30
2006,11,30,09,15,0.30
2006,11,30,09,16,0.30
2006,11,30,09,17,0.40
2006,11,30,09,18,0.50
2006,11,30,09,19,0.60
2006,11,30,09,20,0.70
2006,11,30,09,21,0.80
2006,11,30,09,22,0.90
2006,11,30,09,23,1.00
2006,11,30,09,24,1.10
2006,11,30,09,25,1.20
2006,11,30,09,26,1.30
2006,11,30,09,27,1.30
2006,11,30,09,28,1.40
2006,11,30,09,29,1.50
2006,11,30,09,30,1.70
2006,11,30,09,31,1.80
2006,11,30,09,32,1.80
2006,11,30,09,33,1.80
2006,11,30,09,34,2.00
2006,11,30,09,35,2.10
2006,11,30,09,36,2.10
2006,11,30,09,37,2.20
2006,11,30,09,38,2.30
2006,11,30,09,39,2.30
2006,11,30,09,40,2.30
2006,11,30,09,41,2.40
2006,11,30,09,42,2.60
2006,11,30,09,43,2.80
2006,11,30,09,44,2.90
2006,11,30,09,45,3.10
2006,11,30,09,46,3.20
2006,11,30,09,47,3.30
2006,11,30,09,48,3.50
2006,11,30,09,49,3.80
2006,11,30,09,50,4.00
2006,11,30,09,51,4.30
2006,11,30,09,52,4.50
2006,11,30,09,53,4.60
2006,11,30,09,54,4.70
2006,11,30,09,55,4.90
2006,11,30,09,56,5.00
2006,11,30,09,57,5.10
2006,11,30,09,58,5.30
2006,11,30,09,59,5.30
2006,11,30,10,00,5.40
2006,11,30,10,01,5.50
2006,11,30,10,02,5.50
2006,11,30,10,03,5.50
2006,11,30,10,04,5.70
2006,11,30,10,05,5.70
2006,11,30,10,06,5.70
2006,11,30,10,07,5.80
2006,11,30,10,08,5.80
2006,11,30,10,09,5.90
2006,11,30,10,10,5.90
2006,11,30,10,11,5.90
2006,11,30,10,12,5.90
2006,11,30,10,13,6.00
2006,11,30,10,14,6.00
2006,11,30,10,15,6.00
2006,11,30,10,16,6.00
2006,11,30,10,17,6.00
2006,11,30,10,18,6.00
2006,11,30,10,19,6.00
2006,11,30,10,20,6.00
2006,11,30,10,21,6.00
2006,11,30,10,22,6.00
2006,11,30,10,23,6.00
2006,11,30,10,24,6.00
2006,11,30,10,25,6.00
2006,11,30,10,26,6.00
2006,11,30,10,27,6.00
2006,11,30,10,28,6.00
2006,11,30,10,29,6.00
2006,11,30,10,30,6.00
2006,11,30,10,31,6.00
2006,11,30,10,32,6.00
2006,11,30,10,33,6.00
2006,11,30,10,34,6.00
2006,11,30,10,35,6.00
2006,11,30,10,36,6.00
2006,11,30,10,37,6.00
2006,11,30,10,38,6.00
2006,11,30,10,39,6.00
2006,11,30,10,40,6.00
2006,11,30,10,41,6.00
2006,11,30,10,42,6.00
2006,11,30,10,43,6.00
2006,11,30,10,44,6.00
2006,11,30,10,45,6.00
2006,11,30,10,46,6.00
2006,11,30,10,47,5.90
2006,11,30,10,48,5.90
2006,11,30,10,49,5.90
2006,11,30,10,50,5.90
2006,11,30,10,51,5.90
2006,11,30,10,52,5.90
2006,11,30,10,53,5.90
2006,11,30,10,54,5.90
2006,11,30,10,55,5.90
2006,11,30,10,56,6.00
2006,11,30,10,57,6.00
2006,11,30,10,58,6.00
2006,11,30,10,59,6.00
2006,11,30,11,00,6.00
2006,11,30,11,01,6.00
2006,11,30,11,02,6.00
2006,11,30,11,03,6.10
2006,11,30,11,04,6.10
2006,11,30,11,05,6.20
2006,11,30,11,06,6.20
2006,11,30,11,07,6.20
2006,11,30,11,08,6.20
2006,11,30,11,09,6.30
2006,11,30,11,10,6.30
2006,11,30,11,11,6.30
2006,11,30,11,12,6.40
2006,11,30,11,13,6.40
2006,11,30,11,14,6.40
2006,11,30,11,15,6.50
2006,11,30,11,16,6.50
2006,11,30,11,17,6.50
2006,11,30,11,18,6.60
2006,11,30,11,19,6.60
2006,11,30,11,20,6.50
2006,11,30,11,21,6.50
2006,11,30,11,22,6.50
2006,11,30,11,23,6.50
2006,11,30,11,24,6.40
2006,11,30,11,25,6.40
2006,11,30,11,26,6.40
2006,11,30,11,27,6.40
2006,11,30,11,28,6.40
2006,11,30,11,29,6.40
2006,11,30,11,30,6.40
2006,11,30,11,31,6.40
2006,11,30,11,32,6.40
2006,11,30,11,33,6.40
2006,11,30,11,34,6.40
2006,11,30,11,35,6.40
2006,11,30,11,36,6.40
2006,11,30,11,37,6.40
2006,11,30,11,38,6.40
2006,11,30,11,39,6.40
2006,11,30,11,40,6.30
2006,11,30,11,41,6.30
2006,11,30,11,42,6.30
2006,11,30,11,43,6.30
2006,11,30,11,44,6.30
2006,11,30,11,45,6.30
2006,11,30,11,46,6.30
2006,11,30,11,47,6.30
2006,11,30,11,48,6.30
2006,11,30,11,49,6.30
2006,11,30,11,50,6.30
2006,11,30,11,51,6.30
2006,11,30,11,52,6.30
2006,11,30,11,53,6.30
2006,11,30,11,54,6.30
2006,11,30,11,55,6.30
2006,11,30,11,56,6.30
2006,11,30,11,57,6.30
2006,11,30,11,58,6.40
2006,11,30,11,59,6.40
2006,11,30,12,00,6.40
2006,11,30,12,01,6.40
2006,11,30,12,02,6.40
2006,11,30,12,03,6.40
2006,11,30,12,04,6.40
2006,11,30,12,05,6.40
2006,11,30,12,06,6.40
2006,11,30,12,07,6.40
2006,11,30,12,08,6.40
2006,11,30,12,09,6.40
2006,11,30,12,10,6.40
2006,11,30,12,11,6.40
2006,11,30,12,12,6.40
2006,11,30,12,13,6.40
2006,11,30,12,14,6.40
2006,11,30,12,15,6.40
2006,11,30,12,16,6.40
2006,11,30,12,17,6.40
2006,11,30,12,18,6.40
2006,11,30,12,19,6.40
2006,11,30,12,20,6.40
2006,11,30,12,21,6.30
2006,11,30,12,22,6.30
2006,11,30,12,23,6.30
2006,11,30,12,24,6.40
2006,11,30,12,25,6.40
2006,11,30,12,26,6.40
2006,11,30,12,27,6.40
2006,11,30,12,28,6.30
2006,11,30,12,29,6.30
2006,11,30,12,30,6.30
2006,11,30,12,31,6.30
2006,11,30,12,32,6.30
2006,11,30,12,33,6.30
2006,11,30,12,34,6.30
2006,11,30,12,35,6.30
2006,11,30,12,36,6.30
2006,11,30,12,37,6.30
2006,11,30,12,38,6.30
2006,11,30,12,39,6.30
2006,11,30,12,40,6.30
2006,11,30,12,41,6.30
2006,11,30,12,42,6.30
2006,11,30,12,43,6.30
2006,11,30,12,44,6.30
2006,11,30,12,45,6.30
2006,11,30,12,46,6.30
2006,11,30,12,47,6.30
2006,11,30,12,48,6.30
2006,11,30,12,49,6.30
2006,11,30,12,50,6.30
2006,11,30,12,51,6.30
2006,11,30,12,52,6.30
2006,11,30,12,53,6.30
2006,11,30,12,54,6.30
2006,11,30,12,55,6.30
2006,11,30,12,56,6.30
2006,11,30,12,57,6.30
2006,11,30,12,58,6.30
2006,11,30,12,59,6.30
2006,11,30,13,00,6.30
2006,11,30,13,01,6.30
2006,11,30,13,02,6.30
2006,11,30,13,03,6.30
2006,11,30,13,04,6.30
2006,11,30,13,05,6.30
2006,11,30,13,06,6.30
2006,11,30,13,07,6.30
2006,11,30,13,08,6.30
2006,11,30,13,09,6.30
2006,11,30,13,10,6.30
2006,11,30,13,11,6.30
2006,11,30,13,12,6.30
2006,11,30,13,13,6.30
2006,11,30,13,14,6.20
2006,11,30,13,15,6.20
2006,11,30,13,16,6.20
2006,11,30,13,17,6.30
2006,11,30,13,18,6.30
2006,11,30,13,19,6.30
2006,11,30,13,20,6.30
2006,11,30,13,21,6.30
2006,11,30,13,22,6.30
2006,11,30,13,23,6.30
2006,11,30,13,24,6.30
2006,11,30,13,25,6.30
2006,11,30,13,26,6.30
2006,11,30,13,27,6.30
2006,11,30,13,28,6.30
2006,11,30,13,29,6.30
2006,11,30,13,30,6.20
2006,11,30,13,31,6.20
2006,11,30,13,32,6.20
2006,11,30,13,33,6.20
2006,11,30,13,34,6.20
2006,11,30,13,35,6.20
2006,11,30,13,36,6.20
2006,11,30,13,37,6.20
2006,11,30,13,38,6.20
2006,11,30,13,39,6.20
2006,11,30,13,40,6.20
2006,11,30,13,41,6.20
2006,11,30,13,42,6.20
2006,11,30,13,43,6.20
2006,11,30,13,44,6.20
2006,11,30,13,45,6.20
2006,11,30,13,46,6.10
2006,11,30,13,47,6.10
2006,11,30,13,48,6.10
2006,11,30,13,49,6.10
2006,11,30,13,50,6.10
2006,11,30,13,51,6.10
2006,11,30,13,52,6.10
2006,11,30,13,53,6.10
2006,11,30,13,54,6.10
2006,11,30,13,55,6.10
2006,11,30,13,56,6.00
2006,11,30,13,57,6.00
2006,11,30,13,58,6.00
2006,11,30,13,59,6.00
2006,11,30,14,00,6.00
2006,11,30,14,01,6.00
2006,11,30,14,02,6.00
2006,11,30,14,03,6.00
2006,11,30,14,04,6.00
2006,11,30,14,05,5.90
2006,11,30,14,06,5.90
2006,11,30,14,07,5.90
2006,11,30,14,08,5.90
2006,11,30,14,09,6.00
2006,11,30,14,10,6.00
2006,11,30,14,11,6.00
2006,11,30,14,12,6.00
2006,11,30,14,13,5.90
2006,11,30,14,14,5.90
2006,11,30,14,15,5.90
2006,11,30,14,16,5.90
2006,11,30,14,17,5.90
2006,11,30,14,18,5.90
2006,11,30,14,19,5.90
2006,11,30,14,20,5.90
2006,11,30,14,21,5.90
2006,11,30,14,22,5.90
2006,11,30,14,23,5.90
2006,11,30,14,24,5.90
2006,11,30,14,25,5.90
2006,11,30,14,26,5.90
2006,11,30,14,27,6.00
2006,11,30,14,28,6.00
2006,11,30,14,29,6.00
2006,11,30,14,30,6.00
2006,11,30,14,31,5.90
2006,11,30,14,32,5.90
2006,11,30,14,33,5.90
2006,11,30,14,34,5.90
2006,11,30,14,35,5.90
2006,11,30,14,36,5.90
2006,11,30,14,37,5.90
2006,11,30,14,38,5.90
2006,11,30,14,39,5.90
2006,11,30,14,40,5.80
2006,11,30,14,41,5.80
2006,11,30,14,42,5.80
2006,11,30,14,43,5.80
2006,11,30,14,44,5.80
2006,11,30,14,45,5.80
2006,11,30,14,46,5.80
2006,11,30,14,47,5.80
2006,11,30,14,48,5.80
2006,11,30,14,49,5.80
2006,11,30,14,50,5.80
2006,11,30,14,51,5.80
2006,11,30,14,52,5.80
2006,11,30,14,53,5.80
2006,11,30,14,54,5.80
2006,11,30,14,55,5.80
2006,11,30,14,56,5.80
2006,11,30,14,57,5.80
2006,11,30,14,58,5.80
2006,11,30,14,59,5.80
2006,11,30,15,00,5.80
2006,11,30,15,01,5.80
2006,11,30,15,02,5.80
2006,11,30,15,03,5.80
2006,11,30,15,04,5.80
2006,11,30,15,05,5.80
2006,11,30,15,06,5.80
2006,11,30,15,07,5.80
2006,11,30,15,08,5.80
2006,11,30,15,09,5.80
2006,11,30,15,10,5.80
2006,11,30,15,11,5.80
2006,11,30,15,12,5.80
2006,11,30,15,13,5.80
2006,11,30,15,14,5.90
2006,11,30,15,15,5.80
2006,11,30,15,16,5.80
2006,11,30,15,17,5.80
2006,11,30,15,18,5.80
2006,11,30,15,19,5.80
2006,11,30,15,20,5.80
2006,11,30,15,21,5.80
2006,11,30,15,22,5.80
2006,11,30,15,23,5.80
2006,11,30,15,24,5.80
2006,11,30,15,25,5.70
2006,11,30,15,26,5.70
2006,11,30,15,27,5.70
2006,11,30,15,28,5.70
2006,11,30,15,29,5.70
2006,11,30,15,30,5.70
2006,11,30,15,31,5.70
2006,11,30,15,32,5.70
2006,11,30,15,33,5.70
2006,11,30,15,34,5.70
2006,11,30,15,35,5.70
2006,11,30,15,36,5.70
2006,11,30,15,37,5.80
2006,11,30,15,38,5.80
2006,11,30,15,39,5.80
2006,11,30,15,40,5.80
2006,11,30,15,41,5.80
2006,11,30,15,42,5.80
2006,11,30,15,43,5.80
2006,11,30,15,44,5.80
2006,11,30,15,45,5.80
2006,11,30,15,46,5.80
2006,11,30,15,47,5.80
2006,11,30,15,48,5.90
2006,11,30,15,49,5.90
2006,11,30,15,50,5.90
2006,11,30,15,51,5.90
2006,11,30,15,52,5.90
2006,11,30,15,53,5.90
2006,11,30,15,54,5.90
2006,11,30,15,55,5.90
2006,11,30,15,56,5.90
2006,11,30,15,57,5.90
2006,11,30,15,58,5.90
2006,11,30,15,59,5.90
2006,11,30,16,00,5.90
2006,11,30,16,01,5.90
2006,11,30,16,02,5.80
2006,11,30,16,03,5.80
2006,11,30,16,04,5.80
2006,11,30,16,05,5.80
2006,11,30,16,06,5.80
2006,11,30,16,07,5.80
2006,11,30,16,08,5.80
2006,11,30,16,09,5.80
2006,11,30,16,10,5.80
2006,11,30,16,11,5.80
2006,11,30,16,12,5.70
2006,11,30,16,13,5.70
2006,11,30,16,14,5.70
2006,11,30,16,15,5.70
2006,11,30,16,16,5.70
2006,11,30,16,17,5.70
2006,11,30,16,18,5.70
2006,11,30,16,19,5.70
2006,11,30,16,20,5.70
2006,11,30,16,21,5.70
2006,11,30,16,22,5.60
2006,11,30,16,23,5.60
2006,11,30,16,24,5.60
2006,11,30,16,25,5.60
2006,11,30,16,26,5.60
2006,11,30,16,27,5.60
2006,11,30,16,28,5.60
2006,11,30,16,29,5.60
2006,11,30,16,30,5.60
2006,11,30,16,31,5.60
2006,11,30,16,32,5.60
2006,11,30,16,33,5.60
2006,11,30,16,34,5.60
2006,11,30,16,35,5.60
2006,11,30,16,36,5.50
2006,11,30,16,37,5.50
2006,11,30,16,38,5.50
2006,11,30,16,39,5.50
2006,11,30,16,40,5.50
2006,11,30,16,41,5.50
2006,11,30,16,42,5.50
2006,11,30,16,43,5.50
2006,11,30,16,44,5.50
2006,11,30,16,45,5.40
2006,11,30,16,46,5.40
2006,11,30,16,47,5.40
2006,11,30,16,48,5.40
2006,11,30,16,49,5.40
2006,11,30,16,50,5.40
2006,11,30,16,51,5.40
2006,11,30,16,52,5.40
2006,11,30,16,53,5.50
2006,11,30,16,54,5.50
2006,11,30,16,55,5.50
2006,11,30,16,56,5.50
2006,11,30,16,57,5.50
2006,11,30,16,58,5.50
2006,11,30,16,59,5.50
2006,11,30,17,00,5.50
2006,11,30,17,01,5.40
2006,11,30,17,02,5.40
2006,11,30,17,03,5.40
2006,11,30,17,04,5.40
2006,11,30,17,05,5.40
2006,11,30,17,06,5.30
2006,11,30,17,07,5.30
2006,11,30,17,08,5.30
2006,11,30,17,09,5.30
2006,11,30,17,10,5.20
2006,11,30,17,11,5.20
2006,11,30,17,12,5.20
2006,11,30,17,13,5.10
2006,11,30,17,14,5.10
2006,11,30,17,15,5.10
2006,11,30,17,16,5.10
2006,11,30,17,17,5.10
2006,11,30,17,18,5.10
2006,11,30,17,19,5.00
2006,11,30,17,20,5.00
2006,11,30,17,21,4.90
2006,11,30,17,22,4.90
2006,11,30,17,23,4.90
2006,11,30,17,24,4.90
2006,11,30,17,25,5.00
2006,11,30,17,26,5.00
2006,11,30,17,27,5.00
2006,11,30,17,28,5.00
2006,11,30,17,29,4.90
2006,11,30,17,30,4.90
2006,11,30,17,31,4.90
2006,11,30,17,32,4.90
2006,11,30,17,33,4.90
2006,11,30,17,34,4.90
2006,11,30,17,35,4.90
2006,11,30,17,36,4.90
2006,11,30,17,37,4.90
2006,11,30,17,38,4.90
2006,11,30,17,39,4.90
2006,11,30,17,40,4.90
2006,11,30,17,41,4.90
2006,11,30,17,42,4.90
2006,11,30,17,43,4.90
2006,11,30,17,44,4.90
2006,11,30,17,45,4.90
2006,11,30,17,46,4.90
2006,11,30,17,47,4.80
2006,11,30,17,48,4.80
2006,11,30,17,49,4.80
2006,11,30,17,50,4.80
2006,11,30,17,51,4.70
2006,11,30,17,52,4.70
2006,11,30,17,53,4.70
2006,11,30,17,54,4.70
2006,11,30,17,55,4.70
2006,11,30,17,56,4.70
2006,11,30,17,57,4.70
2006,11,30,17,58,4.70
2006,11,30,17,59,4.70
2006,11,30,18,00,4.70
2006,11,30,18,01,4.70
2006,11,30,18,02,4.70
2006,11,30,18,03,4.70
2006,11,30,18,04,4.70
2006,11,30,18,05,4.70
2006,11,30,18,06,4.70